This demonstration page uses our WeatherBlox Daily Observations layout. Learn more.

Left ArrowRight Arrow

Hourly Observations for February 16, 2022

Temp ( °F °C ) Dew Point ( °F °C ) Humidity (%) Winds ( mph kmh ) Pressure ( in mb ) Visibility ( mi km ) Precip ( " mm )
12:15 am 00:15 Clear 35 1.4 21 -6.2 57 57 NNW 8 13 29.70 1006 10 16 0.00 0.00
12:35 am 00:35 Clear 33 0.5 21 -6.2 61 61 NNW 10 17 29.71 1006 10 16 0.00 0.00
12:55 am 00:55 Clear 36 2.2 23 -5.2 58 58 NNW 14 22 29.69 1006 10 16 0.00 0.00
1:15 am 01:15 Clear 37 2.5 22 -5.3 57 57 N 17 28 29.69 1005 10 16 0.00 0.00
1:35 am 01:35 Clear 35 1.6 21 -6 57 57 N 15 24 29.71 1006 10 16 0.00 0.00
1:55 am 01:55 Clear 35 1.4 21 -6 58 58 N 18 30 29.71 1006 10 16 0.00 0.00
2:15 am 02:15 Clear 34 1.3 20 -6.7 56 56 N 17 28 29.73 1007 10 16 0.00 0.00
2:35 am 02:35 Clear 33 0.6 20 -6.9 58 58 N 17 28 29.74 1007 10 16 0.00 0.00
2:55 am 02:55 Clear 33 0.3 19 -7.1 58 58 N 18 30 29.73 1007 10 16 0.00 0.00
3:15 am 03:15 Clear 33 0.3 19 -7.1 58 58 N 17 28 29.74 1007 10 16 0.00 0.00
3:35 am 03:35 Clear 33 0.3 19 -7.3 57 57 N 20 31 29.76 1008 10 16 0.00 0.00
3:55 am 03:55 Clear 32 0 19 -7.2 59 59 N 20 31 29.75 1008 10 16 0.00 0.00
4:15 am 04:15 Clear 32 -0.2 19 -7.1 60 60 N 23 37 29.78 1008 10 16 0.00 0.00
4:35 am 04:35 Clear 31 -0.4 19 -7.1 61 61 N 18 30 29.78 1008 10 16 0.00 0.00
4:55 am 04:55 Clear 31 -0.6 19 -7.2 61 61 N 18 30 29.79 1009 10 16 0.00 0.00
5:15 am 05:15 Clear 30 -1 19 -7.3 63 63 N 17 28 29.78 1009 10 16 0.00 0.00
5:35 am 05:35 Clear 30 -1 18 -7.6 61 61 N 15 24 29.79 1009 10 16 0.00 0.00
5:55 am 05:55 Clear 29 -1.6 18 -7.8 63 63 N 17 28 29.81 1009 10 16 0.00 0.00
6:15 am 06:15 Clear 29 -1.8 17 -8.1 62 62 N 16 26 29.82 1010 10 16 0.00 0.00
6:35 am 06:35 Clear 28 -2.1 17 -8.3 63 63 N 17 28 29.83 1010 10 16 0.00 0.00
6:55 am 06:55 Clear 28 -2.3 17 -8.1 65 65 N 17 28 29.86 1011 10 16 0.00 0.00
7:15 am 07:15 Clear 27 -2.6 18 -7.8 68 68 N 18 30 29.87 1011 10 16 0.00 0.00
7:35 am 07:35 Partly Cloudy 27 -2.7 19 -7.3 71 71 N 17 28 29.87 1012 10 16 0.00 0.00
7:55 am 07:55 Partly Cloudy 27 -2.8 18 -7.6 70 70 N 17 28 29.88 1012 10 16 0.00 0.00
8:15 am 08:15 Sunny 27 -2.8 18 -7.6 70 70 N 16 26 29.88 1012 10 16 0.00 0.00
8:35 am 08:35 Partly Cloudy 27 -3 18 -7.7 70 70 N 14 22 29.90 1013 10 16 0.00 0.00
8:55 am 08:55 Mostly Cloudy 28 -2 19 -7.2 68 68 N 12 19 29.90 1013 10 16 0.00 0.00
9:15 am 09:15 Partly Cloudy 30 -1.2 20 -6.8 66 66 N 16 26 29.90 1012 10 16 0.00 0.00
9:35 am 09:35 Partly Cloudy 32 0 21 -6 64 64 N 23 37 29.88 1012 10 16 0.00 0.00
9:55 am 09:55 Cloudy 32 0.1 22 -5.6 66 66 N 22 35 29.89 1012 10 16 0.00 0.00
10:15 am 10:15 Cloudy 33 0.3 21 -5.9 63 63 N 20 31 29.89 1012 10 16 0.00 0.00
10:35 am 10:35 Cloudy 33 0.3 22 -5.6 65 65 N 22 35 29.90 1013 10 16 0.00 0.00
10:55 am 10:55 Cloudy 33 0.7 22 -5.7 63 63 N 24 39 29.89 1012 10 16 0.00 0.00
11:15 am 11:15 Cloudy 34 0.9 22 -5.5 63 63 NNE 23 37 29.90 1012 10 16 0.00 0.00
11:35 am 11:35 Cloudy 33 0.8 22 -5.6 63 63 NNE 22 35 29.91 1013 10 16 0.00 0.00
11:55 am 11:55 Cloudy 34 1 22 -5.6 62 62 N 20 31 29.89 1012 10 16 0.00 0.00
12:15 pm 12:15 Cloudy 34 1.1 21 -5.9 60 60 NNE 17 28 29.90 1013 10 16 0.00 0.00
12:35 pm 12:35 Cloudy 35 1.6 22 -5.6 59 59 N 17 28 29.90 1012 10 16 0.00 0.00
12:55 pm 12:55 Cloudy 36 2.2 21 -6.2 54 54 NNE 18 30 29.87 1012 10 16 0.00 0.00
1:15 pm 13:15 Cloudy 38 3.1 20 -6.6 49 49 NNE 18 30 29.86 1011 10 16 0.00 0.00
1:35 pm 13:35 Cloudy 38 3.1 19 -7 48 48 NNE 18 30 29.86 1011 10 16 0.00 0.00
1:55 pm 13:55 Cloudy 39 3.7 19 -7.3 45 45 N 18 30 29.85 1011 10 16 0.00 0.00
2:15 pm 14:15 Cloudy 38 3.5 19 -7.5 45 45 N 22 35 29.86 1011 10 16 0.00 0.00
2:35 pm 14:35 Cloudy 38 3.6 19 -7.5 44 44 NNE 22 35 29.86 1011 10 16 0.00 0.00
2:55 pm 14:55 Cloudy 37 3 17 -8.2 44 44 NNE 25 41 29.88 1012 10 16 0.00 0.00
3:15 pm 15:15 Cloudy 37 2.6 17 -8.3 45 45 NNE 23 37 29.89 1012 10 16 0.00 0.00
3:35 pm 15:35 Cloudy 36 2 17 -8.5 46 46 NNE 23 37 29.91 1013 10 16 0.00 0.00
3:55 pm 15:55 Cloudy 35 1.4 16 -8.8 47 47 NNE 22 35 29.93 1014 10 16 0.00 0.00
4:15 pm 16:15 Cloudy 34 1.1 16 -8.9 48 48 NNE 24 39 29.94 1014 10 16 0.00 0.00
4:35 pm 16:35 Cloudy 34 1 16 -9 48 48 NNE 25 41 29.95 1014 10 16 0.00 0.00
4:55 pm 16:55 Mostly Cloudy 33 0.7 14 -10 45 45 NNE 24 39 29.97 1015 10 16 0.00 0.00
5:15 pm 17:15 Cloudy 33 0.3 12 -10.9 43 43 NNE 20 31 29.99 1016 10 16 0.00 0.00
5:35 pm 17:35 Cloudy 32 -0.1 11 -11.9 41 41 NNE 23 37 30.01 1016 10 16 0.00 0.00
5:55 pm 17:55 Cloudy 31 -0.3 10 -12.4 40 40 NNE 22 35 30.03 1017 10 16 0.00 0.00
6:15 pm 18:15 Cloudy 31 -0.6 10 -12.5 41 41 NNE 21 33 30.04 1017 10 16 0.00 0.00
6:35 pm 18:35 Cloudy 31 -0.8 9 -12.8 40 40 N 23 37 30.05 1018 10 16 0.00 0.00
6:55 pm 18:55 Cloudy 30 -1 8 -13.1 40 40 N 21 33 30.07 1018 10 16 0.00 0.00
7:15 pm 19:15 Cloudy 30 -1.2 10 -12.3 43 43 N 24 39 30.09 1019 10 16 0.00 0.00
7:35 pm 19:35 Cloudy 29 -1.5 10 -12 45 45 N 24 39 30.11 1020 10 16 0.00 0.00
7:55 pm 19:55 Cloudy 29 -1.7 10 -12.3 45 45 N 28 44 30.13 1020 10 16 0.00 0.00
8:15 pm 20:15 Cloudy 28 -2 10 -12.5 45 45 NNE 28 44 30.14 1021 10 16 0.00 0.00
8:35 pm 20:35 Cloudy 28 -2.1 10 -12.3 46 46 N 23 37 30.17 1022 10 16 0.00 0.00
8:55 pm 20:55 Cloudy 28 -2.3 11 -11.6 49 49 N 25 41 30.18 1022 10 16 0.00 0.00
9:15 pm 21:15 Cloudy 27 -2.6 13 -10.6 55 55 N 26 43 30.19 1022 10 16 0.00 0.00
9:35 pm 21:35 Cloudy 26 -3.2 14 -10.2 59 59 N 22 35 30.21 1023 10 16 0.00 0.00
9:55 pm 21:55 Cloudy 26 -3.4 15 -9.6 63 63 N 26 43 30.22 1023 10 16 0.00 0.00
10:15 pm 22:15 Cloudy 26 -3.6 15 -9.4 65 65 N 28 44 30.23 1024 10 16 0.00 0.00
10:35 pm 22:35 Cloudy 25 -3.7 16 -9.1 67 67 N 29 46 30.24 1024 10 16 0.00 0.00
10:55 pm 22:55 Cloudy 25 -3.8 16 -9 68 68 N 31 50 30.21 1023 10 16 0.00 0.00
11:15 pm 23:15 Cloudy 25 -4 16 -8.8 70 70 N 26 43 30.23 1024 10 16 0.00 0.00
11:35 pm 23:35 Cloudy 25 -4 16 -9 69 69 NNE 30 48 30.24 1024 10 16 0.00 0.00
11:55 pm 23:55 Cloudy 25 -4 15 -9.5 66 66 NNE 21 33 30.26 1025 10 16 0.00 0.00

Powered by AerisWeather